Weather History for Canberra, CT

Change the Weather History Date:

Thursday, August 1, 2013

  Actual Average Record
Temperature  
Mean Temperature 42 °F -  
Max Temperature 57 °F 55 °F - ()
Min Temperature 28 °F 34 °F - ()
Degree Days  
Heating Degree Days 22    
Moisture  
Dew Point 36 °F    
Average Humidity 83    
Maximum Humidity 100    
Minimum Humidity 40    
Precipitation  
Precipitation 0.00 in 0.07 in - ()
Sea Level Pressure  
Sea Level Pressure 30.17 in    
Wind  
Wind Speed 4 mph ()    
Max Wind Speed 10 mph    
Max Gust Speed -    
Visibility 4.4 miles    
Events Fog    
T = Trace of Precipitation, MM = Missing Value Source: Averaged Metar Reports

Daily Weather History Graph

Daily Weather History Graph

Search for Another Location

Airport:

Trip Planner

Search our weather history database for the weather conditions in past years. The results will help you decide how hot, cold, wet, or windy it might be!

Date:

Astronomy

Aug. 01, 2013 Rise Set
Actual Time 6:58 AM AEST 5:20 PM AEST
Civil Twilight 6:31 AM AEST 5:47 PM AEST
Nautical Twilight 6:01 AM AEST 6:18 PM AEST
Astronomical Twilight 5:31 AM AEST 6:48 PM AEST
Moon 2:15 AM AEST (8/1) 12:41 PM AEST (8/1)
Length of Visible Light 11h 16m
Length of Day
10h 22m
Waning Crescent, 28% of the Moon is Illuminated
Aug 1
Waning Crescent
Aug 7
New
Aug 14
First Quarter
Aug 21
Full
Aug 28
Last Quarter

Hourly Weather History & Observations

Time (AEST) Temp. Windchill Dew Point Humidity Pressure Visibility Wind Dir Wind Speed Gust Speed Precip Events Conditions
12:00 AM 44 °F - 40 °F 82% 30.27 in - SE 5.8 mph - -   Overcast
12:00 AM 44.6 °F 41.4 °F 41.0 °F 87% 30.24 in 6.2 mi SE 5.8 mph - N/A   Overcast
12:30 AM 44.6 °F 42.2 °F 39.2 °F 81% 30.21 in 6.2 mi SE 4.6 mph - N/A   Overcast
1:00 AM 40 °F - 38 °F 91% 30.27 in - ENE 5.8 mph - -  
1:00 AM 41.0 °F 37.1 °F 39.2 °F 93% 30.21 in 6.2 mi ENE 5.8 mph - N/A   Unknown
1:30 AM 39.2 °F 37.0 °F 37.4 °F 93% 30.21 in 6.2 mi North 3.5 mph - N/A   Unknown
2:00 AM 35.6 °F 30.7 °F 35.6 °F 100% 30.21 in 6.2 mi NNE 5.8 mph - N/A   Unknown
2:30 AM 35.6 °F 31.7 °F 33.8 °F 93% 30.21 in 6.2 mi NNW 4.6 mph - N/A   Unknown
3:00 AM 35 °F - 35 °F 100% 30.25 in 2 mi SSE 3.5 mph - -  
3:00 AM 35.6 °F 32.8 °F 35.6 °F 100% 30.21 in 1.9 mi SSE 3.5 mph - N/A   Unknown
3:09 AM 35.6 °F 31.7 °F 35.6 °F 100% 30.18 in 0.6 mi South 4.6 mph - N/A   Unknown
3:30 AM 35.6 °F - 35.6 °F 100% 30.18 in 0.3 mi South 2.3 mph - N/A   Unknown
3:45 AM 33.8 °F - 33.8 °F 100% 30.18 in 0.6 mi Calm Calm - N/A   Unknown
4:00 AM 35 °F - 34 °F 96% 30.24 in - Calm Calm - -  
4:00 AM 33.8 °F - 33.8 °F 100% 30.18 in 0.6 mi Calm Calm - N/A   Unknown
4:01 AM 33.8 °F - 33.8 °F 100% 30.18 in 0.5 mi Calm Calm - N/A   Unknown
4:30 AM 32.0 °F - 32.0 °F 100% 30.18 in 0.2 mi Calm Calm - N/A Fog Fog
5:00 AM 30.2 °F - 30.2 °F 100% 30.18 in 0.9 mi Calm Calm - N/A   Partly Cloudy
5:30 AM 30.2 °F 25.4 °F 30.2 °F 100% 30.21 in 0.9 mi SE 4.6 mph - N/A   Partly Cloudy
5:55 AM 32.0 °F - 32.0 °F 100% 30.21 in 3.7 mi Calm Calm - N/A   Partly Cloudy
6:00 AM 32 °F - 32 °F 98% 30.25 in - Calm Calm - -  
6:00 AM 32.0 °F - 32.0 °F 100% 30.21 in 4.3 mi Calm Calm - N/A   Partly Cloudy
6:20 AM 30.2 °F 24.3 °F 30.2 °F 100% 30.21 in 2.5 mi North 5.8 mph - N/A   Partly Cloudy
6:26 AM 32.0 °F 27.5 °F 30.2 °F 93% 30.21 in 1.2 mi North 4.6 mph - N/A   Partly Cloudy
6:30 AM 32.0 °F 27.5 °F 30.2 °F 93% 30.21 in 0.2 mi North 4.6 mph - N/A Fog Fog
7:00 AM 31 °F - 31 °F 97% 30.26 in - North 3.5 mph - -  
7:00 AM 30.2 °F 26.7 °F 30.2 °F 100% 30.21 in 0.2 mi North 3.5 mph - N/A Fog Fog
7:30 AM 28.4 °F - 28.4 °F 100% 30.21 in 0.2 mi Calm Calm - N/A Fog Fog
7:50 AM 32.0 °F - 32.0 °F 100% 30.21 in 1.9 mi Calm Calm - N/A Fog Patches of Fog
8:00 AM 33.8 °F - 33.8 °F 100% 30.21 in 1.9 mi Calm Calm - N/A Fog Patches of Fog
8:30 AM 37.4 °F - 37.4 °F 100% 30.21 in 4.3 mi Calm Calm - N/A Fog Patches of Fog
9:00 AM 40 °F - 39 °F 96% 30.27 in - Calm Calm - -  
9:00 AM 41.0 °F - 39.2 °F 93% 30.21 in 3.7 mi Calm Calm - N/A   Scattered Clouds
9:30 AM 42.8 °F 40.1 °F 41.0 °F 93% 30.21 in 4.3 mi SSE 4.6 mph - N/A   Scattered Clouds
10:00 AM 46 °F - 40 °F 74% 30.25 in - ENE 3.5 mph - -  
10:00 AM 46.4 °F 45.2 °F 41.0 °F 81% 30.21 in 5.0 mi ENE 3.5 mph - N/A   Partly Cloudy
10:30 AM 48.2 °F - 41.0 °F 76% 30.21 in 6.2 mi SE 3.5 mph - N/A   Partly Cloudy
11:00 AM 50.0 °F - 41.0 °F 71% 30.18 in 6.2 mi NNW 3.5 mph - N/A   Partly Cloudy
11:30 AM 53.6 °F - 41.0 °F 62% 30.18 in 6.2 mi North 5.8 mph - N/A   Partly Cloudy
12:00 PM 55.4 °F - 41.0 °F 58% 30.15 in 6.2 mi NNW 5.8 mph - N/A   Partly Cloudy
12:30 PM 53.6 °F - 39.2 °F 58% 30.15 in 6.2 mi North 6.9 mph - N/A   Partly Cloudy
1:00 PM 57.2 °F - 41.0 °F 55% 30.12 in 6.2 mi North 6.9 mph - N/A   Partly Cloudy
1:30 PM 57.2 °F - 41.0 °F 55% 30.12 in 6.2 mi NW 6.9 mph - N/A   Partly Cloudy
2:00 PM 57.2 °F - 39.2 °F 51% 30.09 in 6.2 mi North 8.1 mph - N/A   Partly Cloudy
2:30 PM 57.2 °F - 39.2 °F 51% 30.09 in 6.2 mi North 8.1 mph - N/A   Partly Cloudy
3:00 PM 57 °F - 39 °F 40% 30.14 in - NNW 8.1 mph - -  
3:00 PM 57.2 °F - 39.2 °F 51% 30.09 in 6.2 mi NNW 8.1 mph - N/A   Partly Cloudy
3:30 PM 57.2 °F - 39.2 °F 51% 30.09 in 6.2 mi NNW 10.4 mph - N/A   Partly Cloudy
4:00 PM 57.2 °F - 39.2 °F 51% 30.09 in 6.2 mi North 10.4 mph - N/A   Partly Cloudy
4:30 PM 55.4 °F - 39.2 °F 54% 30.09 in 6.2 mi NNW 10.4 mph - N/A   Partly Cloudy
5:00 PM 53.6 °F - 39.2 °F 58% 30.09 in 6.2 mi North 9.2 mph - N/A   Partly Cloudy
5:30 PM 50.0 °F - 39.2 °F 66% 30.09 in 6.2 mi NNW 8.1 mph - N/A   Partly Cloudy
6:00 PM 49 °F - 39 °F 59% 30.16 in - North 6.9 mph - -  
6:00 PM 50.0 °F - 39.2 °F 66% 30.12 in 6.2 mi North 6.9 mph - N/A   Mostly Cloudy
6:30 PM 48.2 °F - 39.2 °F 71% 30.12 in 6.2 mi NNE 4.6 mph - N/A   Mostly Cloudy
7:00 PM 47 °F - 38 °F 63% 30.16 in - NNE 5.8 mph - -  
7:00 PM 48.2 °F - 39.2 °F 71% 30.12 in 6.2 mi NNE 5.8 mph - N/A   Scattered Clouds
7:30 PM 46.4 °F 44.3 °F 37.4 °F 71% 30.12 in 6.2 mi NE 4.6 mph - N/A   Partly Cloudy
8:00 PM 41.0 °F 38.0 °F 35.6 °F 81% 30.12 in 6.2 mi NE 4.6 mph - N/A   Partly Cloudy
8:30 PM 39.2 °F 35.0 °F 35.6 °F 87% 30.12 in 6.2 mi East 5.8 mph - N/A   Partly Cloudy
9:00 PM 38 °F - 36 °F 88% 30.16 in - East 5.8 mph - -  
9:00 PM 39.2 °F 35.0 °F 35.6 °F 87% 30.12 in 6.2 mi East 5.8 mph - N/A   Unknown
9:30 PM 35.6 °F - 32.0 °F 87% 30.12 in 6.2 mi East 1.2 mph - N/A   Unknown
10:00 PM 35 °F - 32 °F 85% 30.15 in - East 2.3 mph - -  
10:00 PM 35.6 °F - 32.0 °F 87% 30.12 in 6.2 mi East 2.3 mph - N/A   Unknown
10:30 PM 35.6 °F - 33.8 °F 93% 30.12 in 6.2 mi Calm Calm - N/A   Unknown
11:00 PM 33.8 °F - 32.0 °F 93% 30.12 in 6.2 mi Calm Calm - N/A   Unknown
11:30 PM 33.8 °F - 32.0 °F 93% 30.09 in 6.2 mi Calm Calm - N/A   Unknown